Location: Roanoke
(37.2710°N, 79.9420°W)
Time: 15:50:57
(UTC-04:00)

Daily predictions for brighter satellites

Satellite Brightness Start Highest point End
(mag) Time Altitude Azimuth Time Altitude Azimuth Time Altitude Azimuth
NOSS 3-4 (A) 3.9 20:07:06 10° NNW 20:14:13 85° ENE 20:21:44 10° SSE
NOSS 3-4 (C) 3.9 20:07:13 10° NNW 20:14:21 85° ENE 20:21:51 10° SSE
Cosmos 2227 Rocket 2.3 20:09:00 10° NNW 20:14:36 58° ENE 20:20:08 10° SE
NOAA 12 4.4 20:10:35 10° S 20:15:49 76° WSW 20:21:04 10° NNW
Cosmos 1777 Rocket 4.4 20:12:22 10° NNW 20:17:36 69° WSW 20:22:49 10° S
CZ-2D R/B 4.3 20:15:08 10° SE 20:18:26 27° ENE 20:21:45 10° NNE
Hubble Space Telescope 3.4 20:20:43 10° SSW 20:21:23 10° SSW 20:22:04 10° SSW
SJ-6B 4.1 20:18:09 10° S 20:21:42 42° W 20:25:17 10° NNW
FengYun 1-2 T 4.3 20:17:24 10° SSE 20:22:57 64° ENE 20:28:29 10° N
Cosmos 2123 Rocket 4.0 20:18:14 10° N 20:24:21 61° E 20:30:26 10° SSE
Resurs 1-3 3.6 20:21:16 10° SSE 20:25:37 74° ENE 20:30:01 10° N
Cosmos 2297 Rocket 2.4 20:23:56 10° NNW 20:29:29 55° ENE 20:35:01 10° SE
Okean 2 3.6 20:26:44 10° N 20:30:55 79° W 20:35:01 10° S
CZ-4B DEB 2.9 20:27:57 10° SSE 20:31:09 55° ENE 20:34:23 10° N
Cosmos 2082 3.7 20:25:40 10° NNW 20:31:18 75° ENE 20:36:55 10° SSE
Helios 1B rocket 3.3 20:28:15 10° N 20:32:17 54° WNW 20:36:17 10° SSW
SL-24 R/B - RUBIN 2 4.3 20:28:34 10° SSW 20:34:18 83° ESE 20:40:45 10° NNE
Meteor 1-5 Rocket 4.4 20:29:16 10° SSW 20:34:34 73° W 20:40:04 10° N
Meteor 1-12 Rocket 4.3 20:29:04 10° S 20:34:40 60° E 20:40:26 10° NNE
Spot 2 Rocket 4.0 20:33:12 10° S 20:38:14 63° WSW 20:43:17 10° NNW
Iridium 4 Rocket 3.8 20:37:14 10° NNE 20:41:47 37° E 20:45:56 10° SSE
Cosmos 1934 Rocket 4.4 20:37:47 10° SSW 20:43:53 68° W 20:50:07 10° N
Cosmos 1346 Rocket 3.3 20:40:45 10° NNW 20:44:40 62° W 20:48:38 10° S
Cosmos 1515 4.3 20:41:56 10° N 20:45:30 36° E 20:48:35 13° SE
Envisat 4.4 20:46:26 15° ESE 20:48:56 21° ENE 20:52:39 10° NNE
Lacrosse 5 2.5 20:45:36 10° NNW 20:50:23 40° NE 20:53:46 18° ESE
Cosmos 1937 Rocket 4.3 20:46:48 10° N 20:51:36 34° ENE 20:54:55 18° ESE
Resurs 01 Rocket 3.0 20:48:15 10° S 20:52:25 40° W 20:56:38 10° NNW
Cosmos 1153 Rocket 4.4 20:47:39 10° S 20:53:47 68° E 20:59:54 10° NNE
Cosmos 2298 Rocket 4.2 20:49:52 10° N 20:55:07 57° ENE 20:59:37 14° SSE
Cosmos 1743 3.5 20:59:22 20° SE 21:01:17 31° E 21:04:46 10° NNE
Cosmos 1697 Rocket 2.6 20:56:03 10° SSW 21:01:41 80° ESE 21:07:21 10° NNE
Cosmos 1447 Rocket 4.5 20:56:36 10° N 21:02:56 71° E 21:09:15 10° SSE
Cosmos 1066 Rocket 4.3 21:02:53 10° N 21:08:32 60° E 21:13:21 15° SSE
Cosmos 1802 Rocket 4.3 21:04:56 10° SSE 21:10:56 45° E 21:17:01 10° NNE
ERS-1 Rocket 3.4 21:08:34 23° SE 21:11:15 43° ENE 21:15:59 10° N
SL-16 R/B 3.8 21:16:08 17° ENE 21:16:08 17° ENE 21:18:05 10° NE
RESURS DK-1 2.5 21:13:24 10° NNW 21:17:29 55° ENE 21:18:51 36° ESE
Cosmos 2016 Rocket 4.3 21:14:02 16° SSE 21:18:31 42° E 21:24:17 10° NNE
CZ-4 DEB 2.9 21:19:01 48° E 21:19:09 49° ENE 21:22:13 10° N
Cosmos 2150 Rocket 3.9 21:15:15 10° NNW 21:20:26 85° ENE 21:23:51 22° SSE
OTV 4 2.7 21:20:50 10° WSW 21:22:40 15° SSW 21:22:59 15° SSW
Cosmos 1763 Rocket 3.4 21:18:33 10° S 21:23:32 56° ESE 21:28:29 10° NNE
USA 186 2.9 21:22:40 15° SSW 21:24:55 38° W 21:27:38 10° NNW
ALOS 3.5 21:20:44 10° S 21:25:09 42° W 21:29:35 10° NNW
Cosmos 1980 Rocket 2.1 21:20:01 10° SSW 21:25:40 76° ESE 21:31:23 10° NNE
Cosmos 1825 Rocket 3.8 21:21:43 10° N 21:26:01 48° E 21:26:56 41° ESE
OAO 2 Rocket 3.3 21:21:26 10° W 21:26:24 66° S 21:28:13 38° ESE
H-2A R/B 4.1 21:24:48 10° SSW 21:28:26 39° W 21:32:08 10° NNW
Cosmos 2173 Rocket 3.9 21:24:05 10° S 21:30:26 76° E 21:36:46 10° N
Cosmos 1898 Rocket 3.8 21:28:22 10° NNW 21:33:38 68° WSW 21:37:06 21° S
Cosmos 2098 Rocket 4.3 21:31:59 28° SE 21:35:03 44° E 21:40:33 10° NNE
H-2A R/B 2.7 21:37:53 37° ENE 21:37:53 37° ENE 21:41:24 10° N
Cosmos 1953 Rocket 3.8 21:33:18 10° N 21:37:38 48° E 21:37:48 47° E
Cosmos 2084 4.3 21:36:56 10° NW 21:40:52 43° WSW 21:42:27 30° SSW
DELTA 2 R/B (1) 4.0 21:36:52 10° WNW 21:42:15 51° SSW 21:43:49 39° SSE
Nimbus 7 Rocket 4.5 21:36:50 10° NNE 21:42:48 56° ESE 21:45:42 30° SSE
Cosmos 1666 4.2 21:45:23 24° NNE 21:45:23 24° NNE 21:47:09 10° NNE
Cosmos 2100 Rocket 4.2 21:41:09 10° SSW 21:47:25 72° W 21:53:39 10° N
Cosmos 841 Rocket 3.4 21:42:37 10° SSW 21:47:51 84° ESE 21:53:05 10° NNE
YAOGAN 11 4.4 21:48:04 35° S 21:49:49 65° WSW 21:54:16 10° NNW
CZ-3C R/B 4.0 21:16:46 10° W 21:50:42 32° SW 21:55:35 21° S
Tiangong 1 2.4 21:48:06 10° WNW 21:50:13 39° NW 21:50:13 39° NW
YAOGAN 6 4.5 21:53:36 22° NNE 21:53:36 22° NNE 21:55:15 10° N
Cosmos 2263 Rocket 3.8 21:49:01 10° N 21:52:50 19° NE 21:52:50 19° NE
Lacrosse 5 rocket 3.7 21:51:34 10° W 21:53:05 12° WSW 21:54:20 11° SW
Cosmos 1758 Rocket 3.7 21:51:45 10° N 21:55:33 59° NE 21:55:33 59° NE
ASTEX 1 3.4 21:54:10 10° NNE 21:58:58 64° E 21:58:58 64° E
Cosmos 2322 Rocket 2.4 22:00:47 48° ENE 22:00:47 48° ENE 22:05:17 10° NNE
Cosmos 2061 Rocket 4.4 21:54:34 10° SSW 22:00:48 62° W 22:07:00 10° N
Tsikada Rocket 4.1 21:55:29 10° N 22:01:46 54° E 22:02:25 52° ESE
Cosmos 1340 3.3 22:00:37 10° NNW 22:03:55 55° WNW 22:03:55 55° WNW
deb Chang Zheng 4 3.6 22:01:13 10° NNE 22:05:36 83° NW 22:05:36 83° NW
Meteor 1-15 Rocket 4.2 22:08:02 65° SE 22:08:39 71° E 22:14:30 10° NNE
MetOp-A 4.0 22:12:56 75° ENE 22:12:57 75° ENE 22:18:18 10° N
Meteor 2-9 Rocket 4.0 22:12:19 70° S 22:12:59 89° E 22:18:25 10° N
Cosmos 1725 Rocket 3.9 22:18:11 58° S 22:19:33 90° ESE 22:25:50 10° N
Cosmos 2058 Rocket 3.7 22:22:25 57° NW 22:22:25 57° NW 22:26:23 10° N
Cosmos 1939 Rocket 4.4 22:24:09 32° WSW 22:24:19 32° W 22:28:05 10° NNW
Cosmos 2227 4.4 22:18:42 10° NNW 22:24:23 65° WSW 22:24:54 61° SW
Milstar 3 Cent rocket 4.3 22:06:47 10° W 22:26:48 51° SSW 22:30:15 42° SSE
Envisat 3.9 22:26:38 38° SW 22:27:38 42° W 22:32:26 10° NNW
Lacrosse 5 3.2 22:28:48 10° WNW 22:32:58 30° WSW 22:32:58 30° WSW
BREEZE-M DEB (TANK) 4.3 22:34:22 10° NW 22:35:26 25° NW 22:35:26 25° NW
SPOT 5 3.6 22:38:12 52° WNW 22:38:12 52° WNW 22:42:22 10° NNW
Cosmos 2233 Rocket 4.1 22:43:02 66° NNE 22:43:02 66° NNE 22:48:20 10° N
H-2A R/B 3.6 22:56:29 26° N 22:56:29 26° N 22:58:44 10° N
ARGOS 3.9 22:57:44 48° NNW 22:57:44 48° NNW 23:01:39 10° NNW
Terra 3.9 22:59:15 20° N 22:59:15 20° N 23:00:53 10° N
SL-16 R/B 2.9 22:57:52 50° WNW 22:57:52 50° WNW 23:03:16 10° NNE
Cosmos 2360 Rocket 4.3 23:14:22 18° NNE 23:14:22 18° NNE 23:15:41 10° NNE
BREEZE-M DEB (TANK) 4.3 22:48:43 10° WNW 23:14:01 70° NNE 23:14:37 68° NE
USA 215 4.0 23:21:34 46° NNE 23:21:34 46° NNE 23:27:03 10° NW
BREEZE-M DEB (TANK) 4.3 23:20:55 10° NW 23:31:51 55° NW 23:31:51 55° NW
Cosmos 2263 Rocket 3.8 23:31:46 10° NNW 23:34:33 29° NW 23:34:33 29° NW
Cosmos 2322 Rocket 4.4 23:42:28 18° W 23:44:12 20° NW 23:48:17 10° N
